When you browse on this site, cookies collect data to enhance your experience and personalize the content and advertising you see.
Visit our Privacy Policy to learn more. By continuing to use the site, you agree to this use of cookies and data.

Stündliche Wetter Graz

Heute, 5 August, Mittwoch

Zeit Temperatur Niederschläge Wind Luftdruck Luftfeuchtigkeit
00:00 +14°C° 0 mm 2 m/S 723 mmHg 85%
01:00 +13°C° 0 mm 3 m/S 723 mmHg 83%
02:00 +14°C° 0 mm 2 m/S 723 mmHg 82%
03:00 +14°C° 0 mm 2 m/S 724 mmHg 81%
04:00 +15°C° 0 mm 2 m/S 724 mmHg 79%
05:00 +15°C° 0 mm 2 m/S 724 mmHg 79%
06:00 +15°C° 0 mm 2 m/S 724 mmHg 79%
07:00 +15°C° 0 mm 2 m/S 724 mmHg 81%
08:00 +15°C° 0.1 mm 2 m/S 724 mmHg 82%
09:00 +15°C° 0.1 mm 2 m/S 725 mmHg 83%
10:00 +16°C° 0.1 mm 2 m/S 725 mmHg 84%
11:00 +16°C° 0.1 mm 2 m/S 725 mmHg 84%
12:00 +16°C° 0.1 mm 1 m/S 725 mmHg 83%
13:00 +18°C° 0.1 mm 1 m/S 725 mmHg 83%
14:00 +18°C° 0.1 mm 1 m/S 725 mmHg 83%
15:00 +18°C° 0.1 mm 1 m/S 725 mmHg 83%
16:00 +17°C° 0.1 mm 2 m/S 724 mmHg 82%
17:00 +18°C° 0 mm 1 m/S 724 mmHg 83%
18:00 +18°C° 0 mm 1 m/S 725 mmHg 84%
19:00 +18°C° 0 mm 1 m/S 725 mmHg 84%
20:00 +16°C° 0 mm 1 m/S 725 mmHg 85%
21:00 +16°C° 0 mm 1 m/S 725 mmHg 86%
22:00 +15°C° 0 mm 1 m/S 725 mmHg 87%
23:00 +15°C° 0 mm 2 m/S 725 mmHg 87%

Morgen, 6 August, Donnerstag

Zeit Temperatur Niederschläge Wind Luftdruck Luftfeuchtigkeit
00:00 +15°C° 0 mm 2 m/S 725 mmHg 87%
01:00 +15°C° 0 mm 2 m/S 725 mmHg 87%
02:00 +15°C° 0 mm 2 m/S 725 mmHg 86%
03:00 +16°C° 0 mm 1 m/S 725 mmHg 84%
04:00 +16°C° 0 mm 1 m/S 725 mmHg 83%
05:00 +18°C° 0 mm 1 m/S 725 mmHg 82%
06:00 +19°C° 0 mm 1 m/S 726 mmHg 81%
07:00 +19°C° 0 mm 1 m/S 726 mmHg 81%
08:00 +21°C° 0 mm 1 m/S 726 mmHg 75%
09:00 +23°C° 0 mm 1 m/S 726 mmHg 69%
10:00 +25°C° 0 mm 1 m/S 727 mmHg 63%
11:00 +26°C° 0.1 mm 1 m/S 727 mmHg 62%
12:00 +27°C° 0.1 mm 1 m/S 727 mmHg 61%
13:00 +27°C° 0.1 mm 2 m/S 726 mmHg 61%
14:00 +27°C° 0.7 mm 2 m/S 726 mmHg 66%
15:00 +26°C° 0.7 mm 2 m/S 726 mmHg 71%
16:00 +26°C° 0.7 mm 2 m/S 726 mmHg 76%
17:00 +24°C° 0.3 mm 1 m/S 726 mmHg 79%
18:00 +23°C° 0.3 mm 1 m/S 726 mmHg 82%
19:00 +22°C° 0.3 mm 1 m/S 726 mmHg 86%
20:00 +21°C° 0.1 mm 1 m/S 727 mmHg 87%
21:00 +20°C° 0.1 mm 1 m/S 727 mmHg 88%
22:00 +20°C° 0.1 mm 1 m/S 727 mmHg 89%
23:00 +19°C° 0 mm 1 m/S 727 mmHg 89%

übermorgen, 7 August, Freitag

Zeit Temperatur Niederschläge Wind Luftdruck Luftfeuchtigkeit
00:00 +18°C° 0 mm 2 m/S 727 mmHg 89%
01:00 +18°C° 0 mm 2 m/S 727 mmHg 90%
02:00 +18°C° 0 mm 2 m/S 727 mmHg 90%
03:00 +18°C° 0 mm 1 m/S 727 mmHg 89%
04:00 +18°C° 0 mm 1 m/S 727 mmHg 89%
05:00 +19°C° 0 mm 1 m/S 727 mmHg 87%
06:00 +20°C° 0 mm 1 m/S 727 mmHg 85%
07:00 +21°C° 0 mm 1 m/S 728 mmHg 83%
08:00 +24°C° 0 mm 1 m/S 728 mmHg 72%
09:00 +26°C° 0 mm 1 m/S 728 mmHg 61%
10:00 +28°C° 0 mm 1 m/S 728 mmHg 51%
11:00 +29°C° 0 mm 1 m/S 728 mmHg 48%
12:00 +29°C° 0 mm 2 m/S 728 mmHg 45%
13:00 +30°C° 0 mm 2 m/S 728 mmHg 42%
14:00 +30°C° 0 mm 2 m/S 728 mmHg 44%
15:00 +29°C° 0 mm 3 m/S 727 mmHg 46%
16:00 +29°C° 0 mm 3 m/S 727 mmHg 47%
17:00 +27°C° 0 mm 2 m/S 727 mmHg 56%
18:00 +25°C° 0 mm 1 m/S 727 mmHg 65%
19:00 +23°C° 0 mm 1 m/S 727 mmHg 74%
20:00 +23°C° 0 mm 1 m/S 727 mmHg 74%
21:00 +22°C° 0 mm 1 m/S 727 mmHg 75%
22:00 +21°C° 0 mm 1 m/S 727 mmHg 76%
23:00 +21°C° 0 mm 1 m/S 727 mmHg 76%

8 August, Samstag

Zeit Temperatur Niederschläge Wind Luftdruck Luftfeuchtigkeit
00:00 +20°C° 0 mm 1 m/S 727 mmHg 76%
01:00 +20°C° 0 mm 1 m/S 727 mmHg 75%
02:00 +20°C° 0 mm 1 m/S 727 mmHg 76%
03:00 +20°C° 0 mm 1 m/S 727 mmHg 76%
04:00 +19°C° 0 mm 1 m/S 727 mmHg 76%
05:00 +20°C° 0 mm 1 m/S 727 mmHg 74%
06:00 +22°C° 0 mm 1 m/S 727 mmHg 72%
07:00 +23°C° 0 mm 1 m/S 727 mmHg 70%
08:00 +25°C° 0 mm 1 m/S 728 mmHg 63%
09:00 +27°C° 0 mm 1 m/S 728 mmHg 55%
10:00 +29°C° 0 mm 1 m/S 728 mmHg 48%
11:00 +30°C° 0 mm 1 m/S 728 mmHg 46%
12:00 +30°C° 0 mm 2 m/S 727 mmHg 44%
13:00 +31°C° 0 mm 2 m/S 727 mmHg 43%
14:00 +30°C° 0 mm 2 m/S 727 mmHg 46%
15:00 +30°C° 0 mm 1 m/S 726 mmHg 48%
16:00 +30°C° 0 mm 1 m/S 726 mmHg 51%
17:00 +28°C° 0.2 mm 1 m/S 726 mmHg 59%
18:00 +26°C° 0.2 mm 1 m/S 726 mmHg 67%
19:00 +22°C° 0.2 mm 0 m/S 726 mmHg 75%
20:00 +24°C° 0.1 mm 1 m/S 726 mmHg 77%
21:00 +23°C° 0.1 mm 1 m/S 726 mmHg 79%
22:00 +22°C° 0.1 mm 1 m/S 726 mmHg 81%
23:00 +21°C° 0 mm 1 m/S 726 mmHg 81%

9 August, Sonntag

Zeit Temperatur Niederschläge Wind Luftdruck Luftfeuchtigkeit
00:00 +21°C° 0 mm 1 m/S 726 mmHg 82%
01:00 +21°C° 0 mm 1 m/S 726 mmHg 83%
02:00 +20°C° 0 mm 1 m/S 726 mmHg 83%
03:00 +20°C° 0 mm 1 m/S 726 mmHg 84%
04:00 +20°C° 0 mm 1 m/S 725 mmHg 84%
05:00 +21°C° 0 mm 1 m/S 726 mmHg 81%
06:00 +22°C° 0 mm 1 m/S 726 mmHg 79%
07:00 +23°C° 0 mm 1 m/S 726 mmHg 76%
08:00 +26°C° 0 mm 1 m/S 726 mmHg 68%
09:00 +28°C° 0 mm 1 m/S 726 mmHg 60%
10:00 +30°C° 0 mm 1 m/S 726 mmHg 52%
11:00 +30°C° 0 mm 1 m/S 726 mmHg 50%
12:00 +30°C° 0 mm 1 m/S 726 mmHg 49%
13:00 +31°C° 0 mm 1 m/S 726 mmHg 47%
14:00 +30°C° 0.1 mm 1 m/S 725 mmHg 49%
15:00 +30°C° 0.1 mm 2 m/S 725 mmHg 51%
16:00 +30°C° 0.1 mm 2 m/S 725 mmHg 52%
17:00 +28°C° 0.5 mm 1 m/S 725 mmHg 62%
18:00 +26°C° 0.5 mm 1 m/S 725 mmHg 71%
19:00 +22°C° 0.5 mm 0 m/S 725 mmHg 80%
20:00 +21°C° 0.5 mm 0 m/S 725 mmHg 82%
21:00 +22°C° 0.5 mm 1 m/S 725 mmHg 84%
22:00 +21°C° 0.5 mm 1 m/S 725 mmHg 86%
23:00 +21°C° 0 mm 1 m/S 725 mmHg 86%

10 August, Montag

Zeit Temperatur Niederschläge Wind Luftdruck Luftfeuchtigkeit
00:00 +21°C° 0 mm 1 m/S 725 mmHg 86%
01:00 +20°C° 0 mm 1 m/S 725 mmHg 87%
02:00 +20°C° 0 mm 1 m/S 725 mmHg 87%
03:00 +20°C° 0 mm 1 m/S 725 mmHg 87%
04:00 +20°C° 0 mm 1 m/S 724 mmHg 88%
05:00 +21°C° 0 mm 1 m/S 725 mmHg 86%
06:00 +20°C° 0 mm 0 m/S 725 mmHg 84%
07:00 +21°C° 0 mm 0 m/S 725 mmHg 83%
08:00 +23°C° 0 mm 0 m/S 725 mmHg 74%
09:00 +27°C° 0 mm 1 m/S 725 mmHg 64%
10:00 +29°C° 0 mm 1 m/S 725 mmHg 55%
11:00 +29°C° 0.1 mm 1 m/S 725 mmHg 53%
12:00 +30°C° 0.1 mm 1 m/S 725 mmHg 50%
13:00 +31°C° 0.1 mm 2 m/S 725 mmHg 48%
14:00 +30°C° 0.1 mm 2 m/S 725 mmHg 49%
15:00 +30°C° 0.1 mm 2 m/S 725 mmHg 50%
16:00 +30°C° 0.1 mm 2 m/S 725 mmHg 52%
17:00 +28°C° 0.1 mm 1 m/S 724 mmHg 60%
18:00 +26°C° 0.1 mm 1 m/S 724 mmHg 69%
19:00 +22°C° 0.1 mm 0 m/S 724 mmHg 77%
20:00 +21°C° 0 mm 0 m/S 724 mmHg 79%
21:00 +20°C° 0 mm 0 m/S 725 mmHg 80%
22:00 +20°C° 0 mm 0 m/S 725 mmHg 82%
23:00 +21°C° 0 mm 1 m/S 725 mmHg 82%
Mehr zeigen